This is the latest recevied weather packets stored in our database for station/object KD7CIH. If no packets are shown the sender has not sent any weather packets the latest 10 day(s).
| Time | Temp. | Humidity | Pressure | Rain* | Wind** | Luminosity | Snow |
|---|---|---|---|---|---|---|---|
| 1787465493 | 21.67° C | 41% | 1018.7 hPa | 0 mm | - | - | - |
| 1787465321 | 21.67° C | 39% | 1018.7 hPa | 0 mm | - | - | - |
| 1787465020 | 22.22° C | 38% | 1018.7 hPa | 0 mm | - | - | - |
| 1787464593 | 21.11° C | 38% | 1018.7 hPa | 0 mm | - | - | - |
| 1787464422 | 21.11° C | 38% | 1018.3 hPa | 0 mm | - | - | - |
| 1787463993 | 21.67° C | 37% | 1018.1 hPa | 0 mm | - | - | - |
| 1787463693 | 21.67° C | 36% | 1018.1 hPa | 0 mm | - | - | - |
| 1787463521 | 22.78° C | 35% | 1018.1 hPa | 0 mm | - | - | - |
| 1787463093 | 23.33° C | 33% | 1018 hPa | 0 mm | - | - | - |
| 1787462921 | 23.89° C | 32% | 1017.8 hPa | 0 mm | - | - | - |
| 1787462495 | 23.89° C | 31% | 1017.8 hPa | 0 mm | - | - | - |
| 1787462189 | 23.89° C | 31% | 1017.8 hPa | 0 mm | - | - | - |
| 1787462016 | 23.89° C | 31% | 1018 hPa | 0 mm | - | - | - |
| 1787461590 | 24.44° C | 31% | 1018 hPa | 0 mm | - | - | - |
| 1787461289 | 24.44° C | 30% | 1018.1 hPa | 0 mm | - | - | - |
| 1787460991 | 24.44° C | 30% | 1018.1 hPa | 0 mm | - | - | - |
| 1787460689 | 24.44° C | 29% | 1018.1 hPa | 0 mm | - | - | - |
| 1787460390 | 24.44° C | 29% | 1018.2 hPa | 0 mm | - | - | - |
| 1787460089 | 24.44° C | 30% | 1018.2 hPa | 0 mm | - | - | - |
| 1787459789 | 24.44° C | 30% | 1018.2 hPa | 0 mm | - | - | - |
| 1787459489 | 24.44° C | 29% | 1018.2 hPa | 0 mm | - | - | - |
| 1787459186 | 24.44° C | 29% | 1018.2 hPa | 0 mm | - | - | - |
| 1787459013 | 24.44° C | 30% | 1018.3 hPa | 0 mm | - | - | - |
| 1787458585 | 24.44° C | 31% | 1018.4 hPa | 0 mm | - | - | - |
| 1787458286 | 24.44° C | 31% | 1018.2 hPa | 0 mm | - | - | - |
* Rain latest hour (hover to see other rain measurements)
** Current wind speed in m/s (hover to see current wind gust speed)